Wind_Speed
16 15 14 13 12 11 10 8 7 6 4 5 4 2 3 2 2 2 2 2 2 2 2 3 3 3 3 4 4 5 5 4 4 5 5 4 4 4 4 4 4 4 4 5
18 17 15 15 14 14 13 11 10 8 6 6 5 4 4 3 2 2 2 2 2 1 0 1 1 1 2 2 3 3 4 4 3 4 5 5 5 5 5 5 5 5 5 5
17 16 16 15 15 15 14 12 11 11 9 9 9 7 6 5 4 4 4 4 4 3 2 1 1 1 1 1 2 2 3 4 4 4 4 5 5 6 6 6 6 6 6 6
19 18 18 17 17 16 15 14 14 13 13 12 11 10 8 8 7 7 6 5 5 4 2 2 2 3 2 1 1 2 3 4 5 5 4 5 5 6 7 7 7 7 7 7
19 18 18 18 17 17 15 15 15 15 15 14 12 12 10 9 9 8 7 7 6 6 4 3 2 3 3 2 2 3 3 5 5 5 6 6 6 7 8 8 8 8 8 8
21 21 19 18 17 17 17 17 17 17 17 16 14 14 11 11 12 10 9 8 8 8 7 6 5 4 4 5 5 5 5 5 6 6 6 7 7 8 9 9 9 9 10 9
23 22 21 20 19 19 18 18 18 19 18 15 15 15 12 12 12 12 10 10 9 9 9 8 7 6 6 7 7 7 7 7 7 7 7 7 8 9 10 10 10 11 11 11
24 23 22 21 21 20 19 18 18 19 18 16 16 15 13 13 13 12 12 11 11 11 10 10 10 10 9 8 8 8 8 8 8 8 8 8 9 10 10 11 11 12 12 12
24 24 23 22 22 23 21 20 19 20 19 17 17 16 14 14 12 12 12 12 12 12 12 12 11 11 10 10 10 10 10 10 10 10 9 10 10 11 11 12 12 13 14 14
25 25 24 23 24 24 24 22 21 21 20 20 18 17 16 15 14 13 13 13 13 13 13 13 13 13 13 13 12 12 12 12 12 11 11 11 12 13 13 14 14 15 15 16
26 26 25 25 26 26 25 24 24 24 23 23 22 19 17 16 16 16 15 14 13 14 14 14 14 14 14 14 14 13 13 13 13 13 13 13 14 15 15 16 17 17 18 17
26 26 26 27 27 27 27 26 25 25 25 25 24 21 19 17 17 17 16 15 14 14 15 15 15 15 15 15 15 15 15 15 14 15 16 15 16 16 17 18 19 20 20 20
27 28 27 27 28 29 28 28 27 27 27 27 25 23 21 19 18 18 17 16 15 15 15 16 16 16 16 16 16 17 17 16 16 17 18 18 18 18 19 20 21 22 22 22
29 30 29 29 28 28 29 28 28 28 28 28 26 24 21 21 20 19 18 16 16 17 17 16 17 17 17 17 17 17 17 17 17 18 19 19 20 20 21 22 23 23 22 22
30 30 30 30 29 29 29 29 29 29 29 29 27 26 23 23 21 20 19 18 18 18 19 19 19 19 19 19 18 18 18 18 19 19 19 20 20 21 22 22 23 23 23 23
32 32 30 31 31 31 30 29 30 30 30 30 29 27 25 24 23 22 21 20 20 19 19 20 20 20 21 20 19 19 19 19 19 20 20 21 21 21 22 22 23 23 23 24
34 34 33 33 32 32 32 30 30 31 31 30 30 28 27 26 24 22 22 21 21 21 20 20 20 20 21 21 21 20 20 19 19 20 20 21 21 21 22 23 23 23 23 23
35 35 35 35 34 34 31 30 29 30 30 30 29 29 28 27 25 23 23 23 23 23 22 22 21 20 21 21 21 20 20 20 19 20 21 21 21 22 23 23 24 23 23 24
36 35 35 36 36 35 32 30 29 29 29 29 28 28 28 26 25 24 24 24 23 23 23 23 23 23 22 22 22 22 21 20 20 21 22 22 22 23 23 24 24 24 24 24
36 36 36 36 37 36 34 32 31 30 30 29 29 29 28 27 26 25 25 25 24 23 23 23 24 24 24 24 22 22 21 20 20 21 22 23 23 23 24 25 24 25 24 24
37 36 36 37 37 36 34 33 33 33 32 30 30 30 30 29 28 26 26 26 25 25 24 24 24 24 24 24 23 22 21 20 20 21 22 23 24 24 25 26 26 26 26 25
37 37 37 36 37 37 34 34 35 34 33 32 32 31 30 30 29 28 27 27 26 26 25 24 24 23 23 23 23 22 21 21 21 22 23 23 24 25 26 27 26 27 27 26
37 37 37 38 38 37 36 36 35 35 35 34 34 32 31 30 30 29 29 28 28 27 26 25 25 24 24 24 23 23 22 22 22 22 23 24 24 25 25 26 27 27 27 27
36 36 37 38 38 38 37 37 37 37 36 35 34 34 33 32 31 30 30 30 29 29 27 26 25 25 25 24 24 23 23 23 23 24 24 24 25 26 27 26 27 27 27 28
36 37 37 38 38 38 37 36 36 36 35 34 34 33 33 32 31 31 31 31 31 29 29 27 26 26 25 26 25 24 23 23 24 24 24 25 26 27 27 27 27 27 27 28
36 36 36 36 37 37 36 35 35 35 35 34 34 33 33 33 33 33 32 32 32 32 30 29 28 27 26 27 25 24 24 24 24 25 25 26 27 28 27 26 27 27 27 28
Wind_Direction
226 227 226 225 228 233 239 237 244 257 272 294 306 321 332 7 357 8 3 10 29 64 67 60 60 58 53 50 51 52 52 52 49 41 31 22 14 10 5 357 349 338 333 331
229 230 232 232 234 232 235 239 248 253 259 271 277 287 298 308 307 308 313 322 321 297 272 35 48 47 44 35 36 42 43 44 41 30 15 6 1 357 348 341 332 326 322 319
232 230 232 233 234 231 234 239 245 246 251 262 272 273 278 284 283 294 300 297 291 276 275 276 310 339 28 18 24 27 22 18 17 13 3 354 349 346 344 338 333 329 320 315
231 229 229 234 238 238 239 242 245 247 253 262 269 271 267 275 272 277 290 291 291 289 281 289 320 320 304 327 351 356 359 355 352 351 350 347 343 339 339 337 330 323 324 316
233 230 231 235 239 241 243 244 247 252 259 262 266 272 264 267 270 278 279 282 280 275 267 266 291 307 294 299 302 314 329 336 337 334 333 332 331 331 331 329 325 321 318 317
231 231 232 233 235 238 241 245 249 255 260 262 268 271 267 268 277 278 273 272 269 269 265 267 277 292 296 301 300 301 306 316 322 325 324 319 318 317 321 320 316 313 311 308
230 232 233 234 233 237 241 245 250 255 259 264 267 268 270 272 276 275 274 270 268 266 266 273 275 277 286 293 295 298 302 305 311 314 313 311 311 311 311 312 312 310 307 304
233 233 235 236 236 240 244 247 253 260 264 267 265 266 270 271 271 273 273 268 268 268 265 270 272 273 277 284 286 288 291 293 300 303 305 308 309 309 308 309 309 308 306 303
234 234 236 238 238 241 243 247 253 259 263 263 263 262 266 269 271 273 273 272 270 269 266 264 266 271 272 274 277 278 281 285 290 294 300 306 307 309 307 308 308 308 307 302
234 234 233 236 238 239 242 244 248 253 258 260 262 261 265 268 272 274 276 276 274 270 266 264 267 270 270 271 275 278 283 282 284 289 295 299 302 306 306 305 306 306 303 300
236 236 233 234 236 239 241 244 246 251 255 261 262 262 266 267 271 273 277 281 276 270 268 266 266 269 270 271 274 278 280 281 282 287 293 296 300 301 301 303 305 303 300 298
238 239 237 237 239 240 243 245 247 252 256 259 262 264 265 266 271 275 277 279 274 268 267 266 266 269 271 271 273 277 283 282 285 289 290 293 296 299 299 300 301 302 299 296
239 241 241 240 241 242 244 247 249 252 255 258 262 265 263 266 271 272 272 272 269 268 266 266 267 268 270 272 274 274 282 286 286 289 290 291 292 295 296 297 297 298 299 297
242 244 245 245 246 247 248 249 250 252 255 258 260 263 263 267 270 269 267 268 267 268 267 265 263 265 268 271 276 277 279 283 285 287 289 290 290 293 294 296 296 296 296 296
243 247 247 247 247 247 248 249 250 253 256 259 260 262 264 265 268 268 266 267 269 271 271 270 265 265 268 273 274 276 279 281 282 284 288 289 290 293 295 296 296 295 295 294
244 246 247 248 247 247 247 248 251 254 257 259 259 261 263 263 263 266 268 270 270 270 273 272 267 265 265 268 270 274 277 279 280 282 286 288 290 293 295 295 296 294 294 294
245 247 248 248 248 249 249 251 252 253 255 258 259 261 262 261 262 265 267 268 267 266 269 269 270 268 267 268 267 271 274 277 280 284 285 288 290 292 294 294 295 294 294 295
245 247 249 249 250 252 254 254 254 254 256 258 260 260 261 259 261 263 264 266 267 267 267 267 268 269 268 272 276 274 274 278 280 283 285 288 290 292 294 295 295 293 295 296
245 246 249 251 251 252 253 255 255 256 256 258 259 259 259 259 261 263 263 265 268 268 267 268 268 269 270 274 275 275 276 279 282 286 286 288 289 291 293 295 296 296 297 298
245 246 248 249 251 252 253 254 255 256 255 256 257 259 259 260 261 262 262 264 267 267 268 269 269 271 270 271 273 274 274 278 283 284 285 286 288 289 292 294 295 298 298 298
245 245 246 247 249 252 253 254 254 255 255 256 257 258 259 259 260 260 261 262 263 265 267 267 267 270 269 270 271 272 273 276 281 284 286 287 287 289 291 292 293 294 294 296
246 245 245 246 249 250 253 255 255 255 254 255 256 257 258 259 259 260 260 260 260 262 264 264 265 268 270 270 269 270 272 277 281 285 287 289 292 292 293 293 293 294 294 295
246 247 248 249 251 253 253 255 256 255 254 255 256 256 257 258 258 259 258 257 259 259 262 263 264 266 267 267 267 267 270 275 280 286 289 291 292 294 292 294 295 296 295 296
247 247 248 250 250 251 253 254 256 256 255 255 256 256 256 255 255 256 256 256 257 258 259 261 263 263 266 266 266 267 270 275 279 283 287 291 293 294 293 292 294 296 295 295
247 247 248 250 250 251 252 253 253 254 255 255 255 254 253 253 254 255 256 256 256 258 259 260 262 262 264 264 266 267 270 275 278 281 285 291 294 296 295 294 294 295 296 296
249 249 250 250 250 251 252 253 254 254 254 254 253 253 253 253 253 253 254 255 256 257 258 257 258 259 262 264 267 268 270 274 277 280 284 289 292 294 295 295 295 295 295 296
Height
5900 5902 5903 5905 5906 5907 5907 5908 5909 5909 5909 5909 5909 5909 5909 5908 5908 5908 5908 5907 5907 5906 5906 5905 5904 5904 5904 5903 5903 5902 5902 5901 5900 5900 5900 5899 5899 5898 5897 5897 5896 5895 5895 5894
5898 5900 5902 5903 5904 5905 5906 5907 5908 5908 5908 5908 5908 5908 5908 5908 5908 5907 5907 5907 5906 5906 5905 5905 5904 5904 5904 5904 5903 5903 5902 5901 5901 5900 5900 5899 5899 5898 5897 5896 5895 5894 5894 5893
5895 5898 5899 5900 5902 5903 5904 5905 5906 5907 5907 5906 5907 5907 5907 5907 5907 5907 5907 5906 5906 5905 5905 5904 5904 5904 5903 5903 5902 5902 5902 5901 5900 5900 5899 5899 5898 5897 5896 5895 5894 5893 5892 5892
5891 5894 5896 5897 5899 5900 5901 5903 5904 5904 5904 5905 5905 5905 5906 5906 5906 5906 5906 5905 5905 5904 5904 5903 5903 5903 5902 5902 5902 5902 5901 5901 5900 5899 5899 5898 5897 5896 5895 5894 5893 5892 5892 5891
5888 5891 5893 5894 5897 5898 5899 5901 5901 5901 5901 5902 5903 5903 5904 5904 5904 5904 5904 5904 5903 5903 5903 5903 5902 5902 5901 5901 5900 5900 5900 5900 5899 5898 5898 5897 5896 5895 5894 5893 5892 5891 5890 5889
5885 5887 5889 5891 5893 5895 5896 5897 5897 5898 5898 5899 5900 5900 5901 5901 5902 5902 5902 5902 5902 5901 5901 5901 5901 5900 5900 5900 5899 5899 5899 5898 5898 5897 5896 5896 5895 5894 5893 5892 5890 5889 5888 5887
5881 5883 5885 5888 5889 5891 5893 5894 5894 5894 5895 5896 5897 5896 5898 5899 5899 5899 5899 5899 5899 5899 5899 5899 5899 5898 5898 5897 5897 5897 5897 5896 5896 5895 5895 5894 5893 5892 5891 5890 5889 5887 5886 5885
5876 5879 5882 5883 5886 5887 5888 5890 5891 5891 5892 5893 5893 5893 5896 5896 5895 5895 5896 5896 5896 5897 5897 5896 5896 5895 5895 5895 5895 5894 5894 5894 5893 5893 5892 5892 5891 5890 5889 5887 5886 5885 5884 5882
5871 5875 5877 5879 5881 5883 5884 5885 5887 5888 5887 5888 5889 5890 5891 5892 5892 5893 5893 5893 5893 5894 5894 5894 5893 5893 5892 5892 5892 5892 5891 5891 5890 5890 5890 5889 5888 5887 5886 5884 5883 5882 5881 5880
5866 5869 5872 5874 5875 5877 5879 5881 5882 5883 5883 5883 5885 5886 5888 5888 5888 5889 5889 5889 5889 5890 5890 5890 5890 5889 5889 5889 5889 5888 5888 5888 5887 5887 5886 5886 5885 5884 5882 5881 5880 5878 5877 5876
5861 5863 5866 5868 5869 5871 5874 5875 5876 5877 5878 5879 5880 5884 5884 5884 5884 5885 5885 5885 5885 5885 5886 5886 5885 5885 5885 5885 5885 5884 5884 5883 5883 5883 5882 5882 5881 5880 5879 5877 5876 5874 5873 5871
5855 5858 5860 5862 5864 5866 5868 5869 5871 5873 5873 5874 5875 5881 5880 5880 5880 5881 5881 5881 5881 5881 5881 5881 5881 5881 5881 5881 5881 5880 5880 5879 5879 5878 5878 5878 5877 5876 5874 5873 5871 5870 5868 5867
5850 5852 5854 5856 5859 5860 5861 5863 5865 5867 5868 5869 5870 5875 5874 5875 5875 5876 5876 5876 5877 5877 5877 5877 5876 5877 5877 5877 5876 5876 5876 5875 5875 5874 5874 5873 5872 5871 5870 5868 5866 5864 5862 5861
5843 5845 5848 5850 5852 5854 5855 5857 5859 5861 5862 5863 5865 5867 5869 5870 5870 5871 5872 5872 5872 5872 5872 5872 5872 5872 5872 5872 5872 5871 5871 5870 5870 5869 5868 5867 5866 5865 5864 5862 5860 5858 5856 5854
5836 5838 5840 5843 5845 5847 5849 5851 5853 5854 5856 5857 5859 5861 5863 5864 5865 5866 5866 5867 5867 5867 5867 5867 5867 5867 5867 5867 5866 5866 5866 5865 5865 5864 5863 5862 5861 5859 5858 5856 5854 5852 5850 5848
5828 5831 5833 5835 5838 5840 5842 5844 5846 5848 5849 5850 5852 5854 5857 5858 5858 5860 5861 5861 5861 5862 5861 5861 5861 5862 5862 5862 5861 5861 5860 5859 5859 5858 5857 5856 5855 5854 5852 5850 5848 5846 5844 5842
5821 5823 5826 5828 5830 5832 5834 5838 5839 5841 5842 5844 5845 5849 5850 5851 5852 5854 5855 5855 5855 5856 5856 5856 5856 5855 5856 5856 5855 5854 5854 5854 5853 5853 5852 5850 5849 5848 5846 5844 5842 5840 5838 5836
5813 5815 5817 5819 5822 5823 5829 5830 5832 5833 5835 5837 5838 5841 5842 5844 5846 5847 5848 5849 5849 5849 5850 5850 5850 5850 5849 5850 5849 5849 5848 5848 5848 5847 5846 5845 5843 5842 5840 5838 5836 5834 5832 5830
5804 5807 5808 5811 5812 5815 5820 5822 5824 5826 5827 5830 5831 5833 5835 5837 5839 5840 5841 5842 5843 5843 5843 5844 5844 5844 5844 5844 5844 5843 5843 5842 5842 5841 5840 5839 5837 5836 5834 5832 5830 5828 5825 5823
5795 5798 5800 5802 5804 5807 5813 5815 5816 5819 5820 5823 5824 5826 5828 5830 5832 5834 5834 5835 5835 5836 5837 5837 5837 5838 5837 5837 5837 5836 5837 5836 5836 5834 5833 5832 5831 5829 5828 5825 5823 5821 5819 5817
5785 5788 5790 5793 5795 5798 5804 5806 5808 5811 5814 5815 5817 5819 5821 5823 5825 5827 5827 5828 5829 5829 5829 5830 5830 5831 5831 5831 5830 5830 5830 5830 5829 5828 5827 5826 5824 5823 5821 5818 5816 5814 5812 5810
5776 5779 5781 5784 5786 5792 5795 5796 5799 5802 5804 5806 5808 5810 5812 5814 5816 5818 5819 5820 5821 5822 5822 5823 5823 5824 5824 5824 5824 5824 5824 5824 5823 5821 5820 5819 5817 5816 5813 5811 5809 5807 5805 5803
5766 5770 5772 5776 5780 5783 5785 5787 5789 5792 5794 5796 5799 5801 5803 5805 5807 5809 5810 5812 5813 5814 5815 5815 5816 5816 5817 5817 5817 5817 5817 5816 5816 5815 5813 5812 5810 5808 5806 5804 5802 5799 5797 5795
5756 5759 5762 5765 5769 5772 5774 5777 5779 5782 5784 5786 5789 5792 5794 5796 5798 5800 5802 5803 5804 5806 5806 5807 5808 5809 5809 5809 5809 5810 5809 5809 5809 5808 5806 5805 5803 5801 5799 5797 5795 5792 5790 5787
5747 5749 5752 5755 5758 5761 5764 5767 5769 5772 5774 5777 5779 5782 5784 5787 5789 5791 5792 5794 5795 5797 5798 5799 5800 5801 5801 5801 5802 5802 5802 5802 5801 5800 5799 5798 5796 5794 5792 5790 5787 5785 5782 5779
5737 5740 5742 5745 5748 5750 5754 5757 5759 5761 5764 5767 5769 5772 5774 5776 5779 5781 5782 5784 5786 5787 5788 5790 5791 5792 5794 5794 5794 5794 5794 5794 5794 5793 5792 5790 5789 5787 5785 5782 5780 5777 5775 5772